{"data":{"norad_id":59164,"epoch":"2026-09-20T21:49:30.186624Z","epoch_age_seconds":123453,"freshness":"FRESH","line1":"1 59164U 24044N   26263.90937716  .00000900  00000+0  42231-4 0  9994","line2":"2 59164  43.0022  84.3780 0001243 271.8369  88.2340 15.27564228143458","mean_motion":15.27564228,"eccentricity":0.0001243,"inclination_deg":43.0022,"raan_deg":84.378,"arg_perigee_deg":271.8369,"mean_anomaly_deg":88.234,"bstar":4.2231e-5,"rev_number":14345,"period_min":94.267722011621,"perigee_km":482.24347218584,"apogee_km":483.94917479006,"semimajor_km":6861.2333234879,"source":"CELESTRAK","updated_at":"2026-09-21T09:00:34.058548Z"}}